Lexington Weather

Lexington, Massachusetts, USA

55°F
5/17/2024 11:53pm 
  • Lexington Conditions: Mostly cloudy
  • Temperature: 54.7°F / 12.6°CColder 1.2°F than last hour.
  • Dew Point: 50.0°FDecreased 0.5°Fsince last hour.
  • Relative Humidity: 84%Increased 2.0% since last hour.
  • Wind: Calm, 10-min avg: Calm, gust: None
  • Barometer: 29.96 in Steady
  • Visibility: 10 miles
  • Rain Today: 0.00 in
  •   

Regional Weather Roundup
for Boston, MA

        
000
ASUS41 KBOX 151110
RWRBOX

REGIONAL WEATHER ROUNDUP
NATIONAL WEATHER SERVICE BOSTON/NORTON MA
700 AM EDT WED MAY 15 2024

NOTE:  "FAIR" INDICATES FEW OR NO CLOUDS BELOW 12,000 FEET WITH NO 
SIGNIFICANT WEATHER AND/OR OBSTRUCTIONS TO VISIBILITY.

MAZALL-151200-
EASTERN MASSACHUSETTS
  
CITY           SKY/WX    TMP DP  RH WIND       PRES   REMARKS
BOSTON         CLOUDY    60  55  83 S6        29.91R                  
BEVERLY        PTSUNNY   62  56  80 W3        29.90R                  
LAWRENCE       CLOUDY    62  57  83 SW5       29.92R                  
BEDFORD        LGT RAIN  61  56  83 SW3       29.90R                  
NORWOOD        PTSUNNY   62  57  83 CALM      29.91R                  
MARSHFIELD     SUNNY     61  55  82 CALM      29.92R                  
PLYMOUTH       SUNNY     58  54  86 CALM      29.91S                  
TAUNTON        SUNNY     61  54  77 SE3       29.91S                  
NEW BEDFORD    SUNNY     59  55  87 CALM      29.91S                  
$$

MAZALL-151200-
CAPE COD AND THE ISLANDS
  
CITY           SKY/WX    TMP DP  RH WIND       PRES   REMARKS
FALMOUTH       SUNNY     57  54  88 S5        29.93R                  
HYANNIS        SUNNY     58  53  84 SW6       29.92R                  
CHATHAM        SUNNY     58  53  84 CALM      29.95R                  
PROVINCETOWN   SUNNY     59  55  87 S7        29.94R                  
NANTUCKET      SUNNY     55  54  96 S5        29.94S                  
MARTHAS VNYRD  SUNNY     57  55  93 S5        29.92S                  
$$
 
MAZALL-151200-
CENTRAL AND WESTERN MASSACHUSETTS
  
CITY           SKY/WX    TMP DP  RH WIND       PRES   REMARKS
WORCESTER      LGT RAIN  59  55  87 S3        29.92S                  
FITCHBURG      LGT RAIN  61  54  77 SW3       29.91S                  
ORANGE         LGT RAIN  59  57  93 CALM      29.92S                  
SPRINGFIELD    CLOUDY    63  59  88 CALM      29.87S                  
WESTFIELD      LGT RAIN  60  58  92 S3        29.90R                  
NORTH ADAMS    LGT RAIN  60  58  92 E5        29.89S                  
PITTSFIELD     LGT RAIN  57  55  93 CALM      29.89R FOG              
$$
 
RIZALL-151200-
RHODE ISLAND
  
CITY           SKY/WX    TMP DP  RH WIND       PRES   REMARKS
PROVIDENCE     PTSUNNY   59  57  93 SE6       29.92R                  
NEWPORT        SUNNY     56  54  93 SE3       29.92R                  
BLOCK ISLAND   MOSUNNY   55  53  93 CALM      29.92S                  
SMITHFIELD     PTSUNNY   60  58  92 CALM      29.92S                  
WESTERLY       MOSUNNY   57  54  89 CALM      29.91S                  
$$
 
CTZALL-151200-
CONNECTICUT
  
CITY           SKY/WX    TMP DP  RH WIND       PRES   REMARKS
BRADLEY INTL   LGT RAIN  62  57  83 S3        29.90S                  
HARTFORD       CLOUDY    60  58  92 CALM      29.90R                  
PLAINVILLE     LGT RAIN  59  59 100 CALM      29.90R FOG              
BRIDGEPORT     LGT RAIN  58  57  97 NE7       29.89S                  
DANBURY        LGT RAIN  61  58  90 CALM      29.90R                  
GROTON         CLOUDY    58  56  93 NE3       29.90R                  
NEW HAVEN      CLOUDY    61  58  90 CALM      29.89S                  
CHESTER        MOSUNNY   59  59 100 CALM      29.91R                  
MERIDEN        LGT RAIN  59  56  89 CALM      29.90R                  
WILLIMANTIC    CLOUDY    59  57  93 N3        29.91S                  
OXFORD         LGT RAIN  57  57 100 SE6       29.91R FOG              
$$

MEZ002-015-021-024-NHZ003-005-008-011-012-014-VTZ005-008-151200-
NORTHERN NEW ENGLAND
  
CITY           SKY/WX    TMP DP  RH WIND       PRES   REMARKS
PORTLAND ME    PTSUNNY   53  51  93 CALM      29.90R                  
BANGOR ME      MOSUNNY   52  49  89 SE6       29.89S                  
CONCORD NH     CLOUDY    60  55  83 CALM      29.89R                  
MANCHESTER NH  CLOUDY    62  56  80 S7        29.89R                  
NASHUA NH      CLOUDY    62  61  96 CALM      29.91R                  
PORTSMOUTH NH  CLOUDY    64  56  73 SW8       29.88S                  
JAFFREY NH     CLOUDY    60  54  80 S5        29.92R                  
KEENE NH       LGT RAIN  58  57  97 CALM      29.91S FOG              
BURLINGTON VT  PTSUNNY   59  57  93 CALM      29.87R FOG              
MT. WASHINGTON MOSUNNY   48  45  87 S3          N/A                   
$$

NYZ052-076-151200-
EASTERN NEW YORK
  
CITY           SKY/WX    TMP DP  RH WIND       PRES   REMARKS
ALBANY         LGT RAIN  61  58  90 SE5       29.88S FOG              
NEW YORK CITY  LGT RAIN  59  57  93 NE6       29.87R FOG              
$$
 
ANZALL-151200-
MARINE OBSERVATIONS
  
STATION/POSITION TIME  TEMP    WIND        PRES    VSBY  WAVE
                       AIR SEA DIR/SP/G                  HT/PER
                 (UTC) (F)     (DEG/KT/KT) (MB)    (MI)  (FT/S)
BOSTON BUOY      1050   54 53  140/  6/  8 1013.4R         1/ 8
BUZZARDS BAY     1000   55     180/  6/  6 1013.5F
NANTUCKET SOUND  1050   56 55  180/  4/  4 1013.2R         1
MASS BAY-STELLWA 0904   55 52  200/  8/ 10 1012.4F  1 7/8  2/ 8
ISLE OF SHOALS   1000   61     220/ 17/ 17 1011.4R
S OF BLOCK IS    1056      51                N/A           2/ 8
$$

......................KEY.........................
  SKY/WX - SKY CONDITION/PRESENT WEATHER
  TMP    - TEMPERATURE IN FAHRENHEIT
  DWPT   - DEWPOINT IN FAHRENHEIT
  RH     - RELATIVE HUMIDITY IN PERCENT
  WIND   - DIRECTION AND SPEED IN MPH
  PRES   - MEAN SEA LEVEL PRESSURE IN INCHES OF HG
  WCI    - WIND CHILL INDEX
  VSB    - VISIBILITY IN MILES
  HX     - HEAT INDEX
  TC     - TEMPERATURE IN CELSIUS
  VRB    - VARIABLE WIND DIRECTION
  N/A    - NOT AVAILABLE
  
      

Other recent Regional Weather Roundups

Fri May 17, 11:10pm EDT

Fri May 17, 10:10pm EDT

Fri May 17, 9:10pm EDT

Fri May 17, 8:10pm EDT

Fri May 17, 7:10pm EDT

Fri May 17, 6:10pm EDT

Fri May 17, 5:10pm EDT

Fri May 17, 4:10pm EDT

Fri May 17, 3:10pm EDT

Fri May 17, 2:10pm EDT

Fri May 17, 1:10pm EDT

Fri May 17, 12:10pm EDT

Fri May 17, 11:10am EDT

Fri May 17, 10:10am EDT

Fri May 17, 9:10am EDT

Fri May 17, 8:10am EDT

Fri May 17, 7:10am EDT

Fri May 17, 6:10am EDT

Fri May 17, 5:10am EDT

Fri May 17, 4:10am EDT

Fri May 17, 3:10am EDT

Fri May 17, 2:10am EDT

Fri May 17, 1:10am EDT

Fri May 17, 12:10am EDT

Thu May 16, 11:10pm EDT

Thu May 16, 10:10pm EDT

Thu May 16, 9:10pm EDT

Thu May 16, 8:10pm EDT

Thu May 16, 7:10pm EDT

Thu May 16, 6:10pm EDT

Thu May 16, 5:10pm EDT

Thu May 16, 4:10pm EDT

Thu May 16, 3:10pm EDT

Thu May 16, 2:10pm EDT

Thu May 16, 1:10pm EDT

Thu May 16, 12:10pm EDT

Thu May 16, 11:10am EDT

Thu May 16, 10:10am EDT

Thu May 16, 9:10am EDT

Thu May 16, 8:10am EDT

Thu May 16, 7:10am EDT

Thu May 16, 6:10am EDT

Thu May 16, 5:10am EDT

Thu May 16, 4:10am EDT

Thu May 16, 3:10am EDT

Thu May 16, 2:10am EDT

Thu May 16, 1:10am EDT

Thu May 16, 12:10am EDT

Wed May 15, 11:10pm EDT

Wed May 15, 10:10pm EDT

Wed May 15, 9:10pm EDT

Wed May 15, 8:10pm EDT

Wed May 15, 7:10pm EDT

Wed May 15, 6:10pm EDT

Wed May 15, 5:10pm EDT

Wed May 15, 4:10pm EDT

Wed May 15, 3:10pm EDT

Wed May 15, 2:10pm EDT

Wed May 15, 1:10pm EDT

Wed May 15, 12:10pm EDT

Wed May 15, 11:10am EDT

Wed May 15, 10:10am EDT

Wed May 15, 9:10am EDT

Wed May 15, 8:10am EDT

Wed May 15, 6:10am EDT

Wed May 15, 5:10am EDT

Wed May 15, 4:10am EDT

Wed May 15, 3:10am EDT

Wed May 15, 2:10am EDT

Wed May 15, 1:10am EDT

Wed May 15, 12:10am EDT

Tue May 14, 11:10pm EDT

Tue May 14, 10:10pm EDT

Tue May 14, 9:10pm EDT

Tue May 14, 8:10pm EDT

Tue May 14, 7:10pm EDT

Tue May 14, 6:10pm EDT

Tue May 14, 5:10pm EDT

Tue May 14, 4:10pm EDT

Tue May 14, 3:10pm EDT

Tue May 14, 2:10pm EDT

Tue May 14, 1:10pm EDT

Tue May 14, 12:10pm EDT

Tue May 14, 11:10am EDT

Tue May 14, 10:10am EDT

Tue May 14, 9:10am EDT

Tue May 14, 8:10am EDT

Tue May 14, 7:10am EDT

Tue May 14, 6:10am EDT

Tue May 14, 5:10am EDT

Tue May 14, 4:10am EDT

Tue May 14, 3:10am EDT

Tue May 14, 2:10am EDT

Tue May 14, 1:10am EDT

Tue May 14, 12:10am EDT

Mon May 13, 11:10pm EDT

Mon May 13, 10:10pm EDT

Mon May 13, 9:10pm EDT

Mon May 13, 8:10pm EDT

Mon May 13, 7:10pm EDT

Mon May 13, 6:10pm EDT

Mon May 13, 5:10pm EDT

Mon May 13, 4:10pm EDT

Mon May 13, 3:10pm EDT

Mon May 13, 2:10pm EDT

Mon May 13, 1:10pm EDT

Mon May 13, 12:10pm EDT

Mon May 13, 11:10am EDT

Mon May 13, 10:10am EDT

Mon May 13, 9:10am EDT

Mon May 13, 8:10am EDT

Mon May 13, 7:10am EDT

Mon May 13, 6:10am EDT

Mon May 13, 5:10am EDT

Mon May 13, 4:10am EDT

Mon May 13, 3:10am EDT

Mon May 13, 2:10am EDT

Mon May 13, 1:10am EDT

Mon May 13, 12:10am EDT

Sun May 12, 11:10pm EDT

Sun May 12, 10:10pm EDT

Sun May 12, 9:10pm EDT

Sun May 12, 8:10pm EDT

Sun May 12, 7:10pm EDT

Sun May 12, 6:10pm EDT

Sun May 12, 5:10pm EDT

Sun May 12, 4:10pm EDT

Sun May 12, 3:10pm EDT

Sun May 12, 2:10pm EDT

Sun May 12, 1:10pm EDT

Sun May 12, 12:10pm EDT

Sun May 12, 11:10am EDT

Sun May 12, 10:10am EDT

Sun May 12, 9:10am EDT

Sun May 12, 8:10am EDT

Sun May 12, 7:10am EDT

Sun May 12, 6:10am EDT

Sun May 12, 5:10am EDT

Sun May 12, 4:10am EDT

Sun May 12, 3:10am EDT

Sun May 12, 2:10am EDT

Sun May 12, 1:10am EDT

Sun May 12, 12:10am EDT

Sat May 11, 11:10pm EDT

Sat May 11, 10:10pm EDT

Sat May 11, 9:10pm EDT

Sat May 11, 8:10pm EDT

Sat May 11, 7:10pm EDT

Sat May 11, 6:10pm EDT

Sat May 11, 5:10pm EDT

Sat May 11, 4:10pm EDT

Sat May 11, 3:10pm EDT

Sat May 11, 2:10pm EDT

Sat May 11, 1:10pm EDT

Sat May 11, 12:10pm EDT

Sat May 11, 11:10am EDT

Sat May 11, 10:10am EDT

Sat May 11, 9:10am EDT

Sat May 11, 8:10am EDT

Sat May 11, 7:10am EDT

Sat May 11, 6:10am EDT

Sat May 11, 5:10am EDT

Sat May 11, 4:10am EDT

Sat May 11, 3:10am EDT

Sat May 11, 2:10am EDT

Sat May 11, 1:10am EDT

Sat May 11, 12:10am EDT